Sacramento, CA

8:51 PM PDT on March 26, 2017 (GMT -0700)
Sacramento Executive

Weather History for KSAC - March, 2012

Change the Weather History Date:

Saturday, March 3, 2012

  Actual Average Record
Temperature  
Mean Temperature 52 °F -  
Max Temperature 69 °F 64 °F 75 °F (1959)
Min Temperature 35 °F 43 °F 28 °F (1966)
Degree Days  
Heating Degree Days 13    
Month to date heating degree days 42  
Cooling Degree Days 0    
Month to date cooling degree days 0  
Year to date cooling degree days 0  
Growing Degree Days 2 (Base 50)    
Moisture  
Dew Point 37 °F    
Average Humidity 61    
Maximum Humidity 92    
Minimum Humidity 29    
Precipitation  
Precipitation 0.00 in 0.12 in 0.88 in (2010)
Month to date precipitation T 0.36  
Year to date precipitation 3.35 7.47  
Since 1 July precipitation 5.70  
Sea Level Pressure  
Sea Level Pressure 30.32 in    
Wind  
Wind Speed 1 mph (ESE)    
Max Wind Speed 7 mph    
Max Gust Speed 10 mph    
Visibility 10 miles    
Events      
T = Trace of Precipitation, MM = Missing Value Source: NWS Daily Summary

Daily Weather History Graph

Daily Weather History Graph

Search for Another Location

Airport or City:

Trip Planner

Search our weather history database for the weather conditions in past years. The results will help you decide how hot, cold, wet, or windy it might be!

Date:

Astronomy

Mar. 03, 2012 Rise Set
Actual Time 6:34 AM PST 6:01 PM PST
Civil Twilight 6:07 AM PST 6:28 PM PST
Nautical Twilight 5:37 AM PST 6:58 PM PST
Astronomical Twilight 5:06 AM PST 7:29 PM PST
Moon 1:19 PM PST (3/3) 3:12 AM PST (3/3)
Length of Visible Light 12h 20m
Length of Day
11h 27m
Waxing Gibbous, 76% of the Moon is Illuminated
Mar 3
Waxing Gibbous
Mar 8
Full
Mar 14
Last Quarter
Mar 22
New
Mar 30
First Quarter

Hourly Weather History & Observations

Time (PST) Temp. Windchill Dew Point Humidity Pressure Visibility Wind Dir Wind Speed Gust Speed Precip Events Conditions
12:53 AM 42.1 °F 39.2 °F 34.0 °F 73% 30.35 in 10.0 mi ESE 4.6 mph - N/A   Clear
1:53 AM 43.0 °F 41.3 °F 35.1 °F 74% 30.35 in 10.0 mi East 3.5 mph - N/A   Clear
2:53 AM 42.1 °F - 36.0 °F 79% 30.34 in 10.0 mi Calm Calm - N/A   Clear
3:53 AM 37.9 °F - 34.0 °F 86% 30.34 in 10.0 mi Calm Calm - N/A   Clear
4:53 AM 37.9 °F - 34.0 °F 86% 30.35 in 10.0 mi Calm Calm - N/A   Clear
5:53 AM 36.0 °F - 33.1 °F 89% 30.36 in 10.0 mi Calm Calm - N/A   Clear
6:53 AM 36.0 °F - 34.0 °F 93% 30.37 in 10.0 mi Calm Calm - N/A   Clear
7:53 AM 43.0 °F - 37.9 °F 82% 30.38 in 10.0 mi Calm Calm - N/A   Clear
8:53 AM 50.0 °F - 37.4 °F 62% 30.39 in 10.0 mi Calm Calm - N/A   Clear
9:53 AM 55.9 °F - 39.0 °F 53% 30.38 in 10.0 mi Calm Calm - N/A   Clear
10:53 AM 60.1 °F - 37.9 °F 44% 30.37 in 10.0 mi Calm Calm - N/A   Clear
11:53 AM 62.1 °F - 36.0 °F 38% 30.35 in 10.0 mi Calm Calm - N/A   Clear
12:53 PM 64.9 °F - 41.0 °F 42% 30.33 in 10.0 mi Calm Calm - N/A   Clear
1:53 PM 66.0 °F - 37.0 °F 34% 30.30 in 10.0 mi Calm Calm - N/A   Clear
2:53 PM 66.0 °F - 33.1 °F 29% 30.28 in 10.0 mi Calm Calm - N/A   Clear
3:53 PM 69.1 °F - 34.0 °F 27% 30.26 in 10.0 mi Calm Calm - N/A   Clear
4:53 PM 66.0 °F - 37.0 °F 34% 30.25 in 10.0 mi Calm Calm - N/A   Clear
5:53 PM 64.0 °F - 36.0 °F 35% 30.25 in 10.0 mi Calm Calm - N/A   Clear
6:53 PM 57.9 °F - 37.9 °F 47% 30.26 in 10.0 mi Calm Calm - N/A   Clear
7:53 PM 54.0 °F - 39.0 °F 57% 30.26 in 10.0 mi Calm Calm - N/A   Clear
8:53 PM 50.0 °F - 39.0 °F 66% 30.26 in 10.0 mi Calm Calm - N/A   Clear
9:53 PM 48.0 °F - 39.9 °F 74% 30.27 in 10.0 mi Calm Calm - N/A   Clear
10:53 PM 46.9 °F - 39.9 °F 77% 30.27 in 10.0 mi Calm Calm - N/A   Clear
11:53 PM 46.9 °F - 39.0 °F 74% 30.26 in 10.0 mi Calm Calm - N/A   Clear